Jefferson, NC

12:45 AM EDT on August 29, 2016 (GMT -0400)
Ashe County

Weather History for KGEV - April, 2015

Change the Weather History Date:

Wednesday, April 1, 2015

  Actual Average Record
Temperature  
Mean Temperature 52 °F -  
Max Temperature 63 °F 61 °F 84 °F (1974)
Min Temperature 41 °F 34 °F 20 °F (1987)
Degree Days  
Heating Degree Days 13    
Growing Degree Days 2 (Base 50)    
Moisture  
Dew Point 15 °F    
Average Humidity 27    
Maximum Humidity 60    
Minimum Humidity 4    
Precipitation  
Precipitation 0.00 in - - ()
Sea Level Pressure  
Sea Level Pressure 30.07 in    
Wind  
Wind Speed 6 mph (NW)    
Max Wind Speed 14 mph    
Max Gust Speed 20 mph    
Visibility 10 miles    
Events      
Averages and records for this station are not official NWS values.
T = Trace of Precipitation, MM = Missing Value Source: NWS Daily Summary

Daily Weather History Graph

Daily Weather History Graph

Search for Another Location

Airport or City:

Trip Planner

Search our weather history database for the weather conditions in past years. The results will help you decide how hot, cold, wet, or windy it might be!

Date:

Astronomy

Apr. 01, 2015 Rise Set
Actual Time 7:12 AM EDT 7:47 PM EDT
Civil Twilight 6:46 AM EDT 8:13 PM EDT
Nautical Twilight 6:15 AM EDT 8:44 PM EDT
Astronomical Twilight 5:44 AM EDT 9:15 PM EDT
Moon 5:28 PM EDT (4/1) 5:38 AM EDT (4/1)
Length of Visible Light 13h 27m
Length of Day
12h 35m
Waxing Gibbous, 93% of the Moon is Illuminated
Apr 1
Waxing Gibbous
Apr 4
Full
Apr 11
Last Quarter
Apr 18
New
Apr 25
First Quarter

Hourly Weather History & Observations

Time (EDT) Temp. Windchill Dew Point Humidity Pressure Visibility Wind Dir Wind Speed Gust Speed Precip Events Conditions
12:15 AM 57.2 °F - 30.2 °F 36% 29.90 in 10.0 mi North 4.6 mph - N/A   Clear
12:35 AM 55.9 °F - 29.1 °F 36% 29.90 in 10.0 mi NW 12.7 mph 19.6 mph N/A   Clear
12:55 AM 55.0 °F - 28.9 °F 37% 29.91 in 10.0 mi NNW 8.1 mph - N/A   Clear
1:15 AM 53.8 °F - 27.1 °F 36% 29.92 in 10.0 mi NNW 9.2 mph 16.1 mph N/A   Clear
1:35 AM 52.7 °F - 26.1 °F 36% 29.92 in 10.0 mi NW 12.7 mph 17.3 mph N/A   Clear
1:55 AM 51.8 °F - 25.7 °F 36% 29.92 in 10.0 mi NW 5.8 mph - N/A   Clear
2:15 AM 50.9 °F - 26.2 °F 38% 29.92 in 10.0 mi NNW 5.8 mph - N/A   Clear
2:35 AM 50.4 °F - 26.2 °F 39% 29.93 in 10.0 mi NNW 5.8 mph - N/A   Clear
2:55 AM 49.3 °F - 26.4 °F 41% 29.92 in 10.0 mi NNW 4.6 mph - N/A   Clear
3:15 AM 48.7 °F - 26.6 °F 42% 29.92 in 10.0 mi NW 4.6 mph - N/A   Clear
3:35 AM 48.7 °F - 26.1 °F 41% 29.92 in 10.0 mi WNW 5.8 mph - N/A   Clear
3:55 AM 47.8 °F - 25.7 °F 42% 29.92 in 10.0 mi NW 5.8 mph - N/A   Clear
4:15 AM 47.3 °F - 25.5 °F 43% 29.93 in 10.0 mi West 3.5 mph - N/A   Clear
4:35 AM 46.8 °F - 25.5 °F 43% 29.93 in 10.0 mi West 10.4 mph - N/A   Clear
4:55 AM 46.6 °F - 24.6 °F 42% 29.95 in 10.0 mi WNW 4.6 mph - N/A   Clear
5:15 AM 46.0 °F 43.9 °F 24.8 °F 43% 29.96 in 10.0 mi WNW 4.6 mph - N/A   Clear
5:35 AM 45.0 °F - 25.3 °F 46% 29.97 in 10.0 mi Calm Calm - N/A   Clear
5:55 AM 44.4 °F - 26.1 °F 49% 29.98 in 10.0 mi Calm Calm - N/A   Clear
6:15 AM 42.3 °F 38.6 °F 27.5 °F 56% 30.00 in 10.0 mi North 5.8 mph - N/A   Clear
6:35 AM 42.4 °F 38.1 °F 28.4 °F 58% 30.00 in 10.0 mi NW 6.9 mph - N/A   Clear
6:55 AM 41.9 °F 36.9 °F 28.4 °F 59% 30.02 in 10.0 mi NW 8.1 mph - N/A   Clear
7:15 AM 41.7 °F 38.8 °F 28.6 °F 60% 30.02 in 10.0 mi NNW 4.6 mph - N/A   Clear
7:35 AM 41.5 °F 36.4 °F 27.9 °F 58% 30.03 in 10.0 mi NW 8.1 mph - N/A   Clear
7:55 AM 42.1 °F 37.7 °F 27.9 °F 57% 30.04 in 10.0 mi NW 6.9 mph - N/A   Clear
8:15 AM 42.3 °F 36.8 °F 27.5 °F 56% 30.04 in 10.0 mi WNW 9.2 mph - N/A   Clear
8:35 AM 44.1 °F 38.1 °F 24.6 °F 46% 30.05 in 10.0 mi WNW 11.5 mph - N/A   Clear
8:55 AM 45.9 °F 41.7 °F 18.9 °F 34% 30.05 in 10.0 mi WNW 8.1 mph 17.3 mph N/A   Clear
9:15 AM 47.3 °F - 20.1 °F 34% 30.06 in 10.0 mi WNW 4.6 mph - N/A   Clear
9:35 AM 48.4 °F - 17.8 °F 30% 30.06 in 10.0 mi WNW 9.2 mph - N/A   Clear
9:55 AM 49.3 °F - 15.1 °F 26% 30.07 in 10.0 mi WNW 4.6 mph - N/A   Clear
10:15 AM 51.1 °F - 17.1 °F 26% 30.09 in 10.0 mi NNW 9.2 mph - N/A   Clear
10:40 AM 52.0 °F - 16.3 °F 24% 30.11 in 10.0 mi NNW 10.4 mph - N/A   Clear
10:55 AM 52.2 °F - 14.4 °F 22% 30.11 in 10.0 mi NNW 5.8 mph 17.3 mph N/A   Clear
11:15 AM 53.4 °F - 12.4 °F 20% 30.11 in 10.0 mi NNW 9.2 mph - N/A   Clear
11:35 AM 55.2 °F - 6.6 °F 14% 30.12 in 10.0 mi NW 6.9 mph - N/A   Clear
11:55 AM 56.1 °F - 9.7 °F 16% 30.11 in 10.0 mi North 5.8 mph - N/A   Clear
12:15 PM 55.6 °F - 15.4 °F 21% 30.11 in 10.0 mi Calm Calm - N/A   Clear
12:35 PM 56.5 °F - 11.5 °F 17% 30.11 in 10.0 mi NNW 5.8 mph - N/A   Clear
12:55 PM 57.2 °F - 13.3 °F 18% 30.10 in 10.0 mi North 4.6 mph - N/A   Clear
1:15 PM 59.5 °F - -0.0 °F 9% 30.10 in 10.0 mi NW 10.4 mph 18.4 mph N/A   Clear
1:35 PM 60.3 °F - -9.8 °F 6% 30.09 in 10.0 mi WNW 13.8 mph 19.6 mph N/A   Clear
1:55 PM 61.0 °F - -3.6 °F 7% 30.10 in 10.0 mi NNW 10.4 mph - N/A   Clear
2:15 PM 61.5 °F - -7.1 °F 6% 30.10 in 10.0 mi WNW 12.7 mph - N/A   Clear
2:35 PM 63.3 °F - -4.2 °F 7% 30.10 in 10.0 mi NW 10.4 mph 18.4 mph N/A   Clear
2:55 PM 62.4 °F - -8.0 °F 6% 30.10 in 10.0 mi NNW 6.9 mph - N/A   Clear
3:15 PM 63.7 °F - -8.7 °F 5% 30.10 in 10.0 mi WNW 6.9 mph 18.4 mph N/A   Clear
3:35 PM 62.6 °F - -6.3 °F 6% 30.10 in 10.0 mi North 5.8 mph - N/A   Clear
3:55 PM 63.0 °F - -17.5 °F 4% 30.10 in 10.0 mi NW 6.9 mph - N/A   Clear
4:15 PM 62.8 °F - -12.3 °F 5% 30.11 in 10.0 mi NNW 6.9 mph - N/A   Clear
4:35 PM 62.8 °F - -4.7 °F 6% 30.11 in 10.0 mi NNW 5.8 mph - N/A   Clear
4:55 PM 62.8 °F - -0.6 °F 8% 30.11 in 10.0 mi NNE 4.6 mph - N/A   Clear
5:15 PM 63.3 °F - -1.8 °F 7% 30.11 in 10.0 mi North 4.6 mph - N/A   Clear
5:35 PM 63.0 °F - 4.5 °F 10% 30.12 in 10.0 mi WNW 4.6 mph - N/A   Clear
5:55 PM 62.4 °F - 4.8 °F 10% 30.11 in 10.0 mi NNW 5.8 mph - N/A   Clear
6:15 PM 61.9 °F - 5.0 °F 10% 30.12 in 10.0 mi NNW 4.6 mph - N/A   Clear
6:35 PM 61.9 °F - 5.4 °F 11% 30.12 in 10.0 mi NNW 4.6 mph - N/A   Clear
6:55 PM 61.2 °F - 5.4 °F 11% 30.13 in 10.0 mi Calm Calm - N/A   Clear
7:15 PM 61.0 °F - 6.1 °F 11% 30.13 in 10.0 mi Calm Calm - N/A   Clear
7:35 PM 59.9 °F - 4.8 °F 11% 30.13 in 10.0 mi Calm Calm - N/A   Clear
7:55 PM 56.7 °F - 12.9 °F 18% 30.14 in 10.0 mi SE 4.6 mph - N/A   Clear
8:15 PM 56.1 °F - 14.5 °F 19% 30.15 in 10.0 mi Calm Calm - N/A   Clear
8:35 PM 55.6 °F - 15.8 °F 21% 30.16 in 10.0 mi Calm Calm - N/A   Clear
8:55 PM 54.5 °F - 17.6 °F 23% 30.17 in 10.0 mi Calm Calm - N/A   Clear
9:15 PM 53.6 °F - 18.5 °F 25% 30.18 in 10.0 mi Calm Calm - N/A   Clear
9:35 PM 53.2 °F - 18.5 °F 26% 30.20 in 10.0 mi Calm Calm - N/A   Clear
9:55 PM 51.8 °F - 19.2 °F 28% 30.20 in 10.0 mi Calm Calm - N/A   Clear
10:15 PM 52.0 °F - 19.2 °F 28% 30.20 in 10.0 mi Calm Calm - N/A   Clear
10:35 PM 53.1 °F - 18.9 °F 26% 30.20 in 10.0 mi Calm Calm - N/A   Clear
10:55 PM 52.7 °F - 19.0 °F 27% 30.20 in 10.0 mi Calm Calm - N/A   Clear
11:15 PM 50.9 °F - 19.4 °F 29% 30.21 in 10.0 mi Calm Calm - N/A   Clear
11:35 PM 49.6 °F - 19.9 °F 31% 30.21 in 10.0 mi Calm Calm - N/A   Clear
11:55 PM 49.6 °F - 20.1 °F 31% 30.22 in 10.0 mi Calm Calm - N/A   Clear